Showing default

SKYSAT C11, 42987

Orbit data source: Space-Track

SKYSAT C11, 42987 is a payload satellite owned by Terra Bella (US) in SSO that was launched on Tue, 31 Oct 2017 UTC via a MINOTAUR-C 3210 launch vehicle from the Air Force Western Test Range (AFWTR). Payload-class satellites include a variety of spacecraft equipped with specific instruments for various scientific and technological missions. These include communications satellites like Starlink; space stations such as the ISS; scientific satellites like the Hubble; Earth observation satellites from companies like Planet Labs, Umbra, and HawkEye 360; GPS; miniature CubeSats for education and research; and military/defense satellites.

Loading next visibility...
Identifier
42987, 2017-068A
Orbit
SSO
Country
Flag of USUS
Related business
Manufacturer
Maxar SSL
Mission
Operational Commercial Imaging
Bus & Motor
SKYSAT-GEN2, Unknown motor
Mass
110 kg wet, 110 kg dry
Launch date (UTC)
2017-10-31 (8 years ago)
Launch vehicle
MINOTAUR-C 3210
Launch site
Air Force Western Test Range (AFWTR)
Object type
Payload
Rocket body
Debris
Shape & HBR
Box, 1.0 m
Radar Cross Section
0.888 m², Medium (>0.1 m² and < 1m²)

Expand to show TLE details & history
Last TLE update: 9 hours ago

TLE from 9 hours ago
0 SKYSAT C11
1 42987U 17068A   25303.31874315  .00028249  00000-0  60079-3 0  9997
2 42987  97.4115  79.8292 0000516  75.5649 284.5657 15.44947049447609
Epoch: 2025-10-30T07:38Z
TLE epoch observation values (Epoch: 2025-10-30T07:38:59.408Z)
Latitude
0.00001°
Longitude
-73.79758°
Altitude
434.569 km
Speed
7.651 km/s
True Right ascension
05h 19m 19s
True Declination
0° 00' 00"
Sunlit
Object was in full shadow at epoch
Visualization orbit readout
Latitude
Unknown
Longitude
Unknown
Altitude
Unknown
Speed
Unknown
Apparent Right ascension
Unknown
Apparent Declination
Unknown
Sunlit
N/A
Visualization observer readout
Local Sidereal Time
12:16:47
Azimuth
Unknown
Elevation
Unknown
Doppler factor
Unknown
Orbital elements
Apogee altitude
428.818 km
Perigee altitude
428.115 km
Semi-major axis
6,806.604 km
Eccentricity
0.00005
Inclination
97.4115°
RAAN
79.8292°
Arg. of periapsis
75.5649°
True anomaly
284.55998°
Mean anomaly
284.5657°
Eccentric anomaly
284.56284°
Mean motion
3.86498 °/min
Orbital period
93.14 mins
BSTAR
0.00060079
Loading maneuver chart data...
Computing Atmospheric mass density...
Loading historical data...
Loading historical data...
Loading historical data...
Loading historical data...
Loading historical data...
Loading historical data...
Loading historical data...

Documentation

Showing up to 5 results
|